This demonstration page uses our WeatherBlox Daily Observations layout. Learn more.

Left ArrowRight Arrow

Hourly Observations for July 3, 2017

Temp ( °F °C ) Dew Point ( °F °C ) Humidity (%) Winds ( mph kmh ) Pressure ( in mb ) Visibility ( mi km ) Precip ( " mm )
12:53 am 00:53 Clear 84 28.9 58 14.4 41 41 SE 12 19 29.87 1012 10 16 0.00 0.00
1:53 am 01:53 Clear 83 28.3 59 15 44 44 SE 12 19 29.85 1011 10 16 0.00 0.00
2:53 am 02:53 Clear 81 27.2 60 15.6 49 49 SE 13 20 29.84 1011 10 16 0.00 0.00
3:53 am 03:53 Clear 80 26.7 60 15.6 51 51 SE 10 17 29.83 1010 10 16 0.00 0.00
4:53 am 04:53 Clear 80 26.7 59 15 49 49 SSE 10 17 29.83 1010 10 16 0.00 0.00
5:53 am 05:53 Clear 78 25.6 59 15 52 52 SE 10 17 29.83 1010 10 16 0.00 0.00
6:53 am 06:53 Sunny 76 24.4 59 15 56 56 SE 7 11 29.85 1011 10 16 0.00 0.00
7:53 am 07:53 Sunny 77 25 59 15 54 54 SE 14 22 29.86 1011 10 16 0.00 0.00
8:53 am 08:53 Sunny 80 26.7 60 15.6 51 51 SE 16 26 29.88 1012 10 16 0.00 0.00
9:53 am 09:53 Sunny 84 28.9 61 16.1 46 46 SE 15 24 29.88 1012 10 16 0.00 0.00
10:53 am 10:53 Sunny 88 31.1 61 16.1 40 40 SE 15 24 29.87 1011 10 16 0.00 0.00
11:53 am 11:53 Sunny 92 33.3 58 14.4 32 32 SSE 8 13 29.86 1011 10 16 0.00 0.00
12:53 pm 12:53 Sunny 97 36.1 56 13.3 25 25 SSE 8 13 29.83 1010 10 16 0.00 0.00
1:53 pm 13:53 Sunny 100 37.8 53 11.7 21 21 VRB 7 11 29.80 1009 10 16 0.00 0.00
2:53 pm 14:53 Sunny 99 37.2 51 10.6 20 20 S 7 11 29.79 1009 10 16 0.00 0.00
3:53 pm 15:53 Sunny 99 37.2 51 10.6 20 20 S 13 20 29.78 1008 10 16 0.00 0.00
4:53 pm 16:53 Mostly Cloudy 95 35 45 7.2 18 18 SW 14 22 29.78 1009 10 16 0.00 0.00
5:53 pm 17:53 Mostly Sunny 92 33.3 46 7.8 21 21 SSW 15 24 29.80 1009 7 11 0.00 0.00
6:53 pm 18:53 Mostly Sunny 93 33.9 47 8.3 21 21 SSW 25 41 29.79 1009 10 16 0.00 0.00
7:53 pm 19:53 Sunny 90 32.2 47 8.3 23 23 S 24 39 29.81 1010 10 16 0.00 0.00
8:06 pm 20:06 Sunny with Thunderstorms 90 32.2 46 7.8 22 22 S 20 31 29.74 1007 10 16 0.00 0.00
8:21 pm 20:21 Mostly Sunny 90 32.2 45 7.2 21 21 SW 16 26 29.77 1008 10 16 0.00 0.00
8:40 pm 20:40 Partly Cloudy with Nearby Thunderstorms 84 28.9 54 12.2 36 36 W 21 33 29.83 1010 10 16 0.00 0.03
8:53 pm 20:53 Mostly Cloudy with Nearby Thunderstorms 85 29.4 52 11.1 32 32 S 17 28 29.84 1011 10 16 0.00 0.03
8:57 pm 20:57 Mostly Cloudy with Light Rain 85 29.4 53 11.7 33 33 S 20 31 29.77 1008 10 16 0.00 0.03
9:53 pm 21:53 Clear 86 30 49 9.4 28 28 SSW 12 19 29.80 1009 10 16 0.00 0.03
10:53 pm 22:53 Clear 81 27.2 50 10 34 34 S 8 13 29.82 1010 10 16 0.00 0.00
11:53 pm 23:53 Clear 79 26.1 50 10 36 36 SE 3 6 29.83 1010 10 16 0.00 0.00

Powered by AerisWeather